Richmond, VA

7:38 PM EDT on April 19, 2019 (GMT -0400)
Richmond International

Weather History for KRIC - April, 2019

Change the Weather History Date:

Friday, April 19, 2019

  Actual Average Record
Temperature  
Mean Temperature 70 °F 59 °F  
Max Temperature 76 °F 72 °F 93 °F (1985)
Min Temperature 64 °F 47 °F 29 °F (2001)
Degree Days  
Heating Degree Days 0 7  
Month to date heating degree days 112 177  
Since 1 July heating degree days 3451 3629  
Cooling Degree Days 5 1  
Month to date cooling degree days 31 18  
Year to date cooling degree days 36 24  
Growing Degree Days 20 (Base 50)    
Moisture  
Dew Point 65 °F    
Average Humidity 82    
Maximum Humidity 93    
Minimum Humidity 71    
Precipitation  
Precipitation 0.10 in 0.11 in 1.50 in (1900)
Month to date precipitation 2.12 2.10  
Year to date precipitation 12.29 11.94  
Snow  
Snow 0.00 in 0.00 in 0.00 in (2002)
Month to date snowfall 0.0 0.1  
Since 1 July snowfall 13.1 10.3  
Snow Depth 0.00 in    
Sea Level Pressure  
Sea Level Pressure 29.75 in    
Wind  
Wind Speed 14 mph ()    
Max Wind Speed 28 mph    
Max Gust Speed 37 mph    
Visibility 9.6 miles    
Events Rain    
T = Trace of Precipitation, MM = Missing Value Source: Averaged Metar Reports

Daily Weather History Graph

Daily Weather History Graph

Search for Another Location

Airport or City:

Astronomy

Apr. 19, 2019 Rise Set
Actual Time 6:29 AM EDT 7:48 PM EDT
Civil Twilight 6:02 AM EDT 8:15 PM EDT
Nautical Twilight 5:29 AM EDT 8:48 PM EDT
Astronomical Twilight 4:55 AM EDT 9:22 PM EDT
Moon 8:12 PM EDT 6:53 AM EDT
Length of Visible Light 14h 13m
Length of Day
13h 18m
Full, 100% of the Moon is Illuminated
Today
Full
Apr 26
Last Quarter
May 4
New
May 11
First Quarter
May 18
Full

Hourly Weather History & Observations

Time (EDT) Temp. Dew Point Humidity Pressure Visibility Wind Dir Wind Speed Gust Speed Precip Events Conditions
12:54 AM 68.0 °F 59.0 °F 73% 29.90 in 10.0 mi South 15.0 mph - N/A   Overcast
1:54 AM 68.0 °F 59.0 °F 73% 29.88 in 10.0 mi South 17.3 mph - N/A   Mostly Cloudy
2:54 AM 66.9 °F 60.1 °F 79% 29.87 in 10.0 mi South 15.0 mph - N/A   Scattered Clouds
3:54 AM 66.0 °F 60.1 °F 81% 29.86 in 10.0 mi South 13.8 mph - N/A   Mostly Cloudy
4:54 AM 66.0 °F 61.0 °F 84% 29.83 in 10.0 mi South 13.8 mph - N/A   Overcast
5:42 AM 64.9 °F 62.1 °F 90% 29.80 in 10.0 mi South 8.1 mph - 0.01 in   Overcast
5:54 AM 64.9 °F 62.1 °F 90% 29.81 in 10.0 mi SSE 10.4 mph - 0.01 in   Overcast
6:54 AM 66.0 °F 63.0 °F 90% 29.82 in 10.0 mi South 11.5 mph - N/A   Overcast
7:54 AM 68.0 °F 64.0 °F 87% 29.83 in 10.0 mi South 15.0 mph 21.9 mph N/A   Overcast
8:54 AM 71.1 °F 64.9 °F 81% 29.82 in 10.0 mi South 15.0 mph 26.5 mph N/A   Overcast
9:54 AM 73.0 °F 64.9 °F 76% 29.80 in 10.0 mi South 19.6 mph 27.6 mph N/A   Overcast
10:54 AM 73.9 °F 66.0 °F 76% 29.79 in 10.0 mi South 13.8 mph 25.3 mph N/A   Overcast
11:54 AM 75.9 °F 66.0 °F 71% 29.77 in 10.0 mi South 15.0 mph 31.1 mph N/A   Overcast
12:30 PM 75.0 °F 66.0 °F 73% 29.74 in 10.0 mi SSE 19.6 mph 26.5 mph N/A   Overcast
12:54 PM 75.0 °F 66.0 °F 73% 29.74 in 10.0 mi SSE 13.8 mph - 0.00 in Rain Light Rain
1:14 PM 72.0 °F 66.9 °F 84% 29.71 in 2.5 mi SSE 16.1 mph 27.6 mph 0.02 in Rain Light Rain
1:24 PM 72.0 °F 66.9 °F 84% 29.73 in 9.0 mi SSE 20.7 mph 34.5 mph 0.06 in Rain Light Rain
1:46 PM 72.0 °F 68.0 °F 87% 29.71 in 9.0 mi South 21.9 mph 31.1 mph 0.08 in Rain Light Rain
1:54 PM 72.0 °F 68.0 °F 87% 29.72 in 10.0 mi South 13.8 mph 31.1 mph 0.08 in Rain Light Rain
2:12 PM 72.0 °F 68.0 °F 87% 29.70 in 10.0 mi South 13.8 mph 23.0 mph 0.00 in   Overcast
2:54 PM 73.0 °F 68.0 °F 84% 29.70 in 7.0 mi South 20.7 mph 32.2 mph 0.00 in Rain Light Rain
3:54 PM 73.9 °F 69.1 °F 85% 29.66 in 10.0 mi SSE 13.8 mph 24.2 mph 0.01 in   Overcast
4:18 PM 73.0 °F 68.0 °F 84% 29.64 in 10.0 mi South 20.7 mph 29.9 mph N/A   Overcast
4:38 PM 73.9 °F 68.0 °F 82% 29.63 in 10.0 mi South 18.4 mph 26.5 mph N/A   Mostly Cloudy
4:54 PM 73.9 °F 66.9 °F 79% 29.64 in 10.0 mi SSE 17.3 mph 26.5 mph N/A   Overcast
5:54 PM 73.0 °F 66.9 °F 81% 29.63 in 10.0 mi South 16.1 mph 21.9 mph N/A   Overcast
6:54 PM 72.0 °F 68.0 °F 87% 29.61 in 10.0 mi SE 15.0 mph - 0.00 in   Overcast
7:06 PM 71.1 °F 68.0 °F 90% 29.60 in 10.0 mi SSE 12.7 mph - N/A   Mostly Cloudy